Miscellaneous Local Product
Issued by NWS North Platte, NE

Home | Current Version | Previous Version | Text Only | Print | Product List | Glossary On
Versions: 1 2 3 4 5 6 7 8 9 10 11 12 13 14 15 16 17 18 19 20 21 22 23 24 25 26 27 28 29 30 31 32 33 34 35 36 37 38 39 40 41 42 43 44 45 46 47 48 49 50
077
AXUS43 KLBF 290110
MISLBF


WESTERN AND NORTH CENTRAL NEBRASKA HOURLY WEATHER ROUNDUP
NATIONAL WEATHER SERVICE NORTH PLATTE NE
800 PM CDT THU APR 28 2016

NOTE: "FAIR" INDICATES FEW OR NO CLOUDS BELOW 12,000 FEET WITH NO
SIGNIFICANT WEATHER AND/OR OBSTRUCTIONS TO VISIBILITY.

NOTE: STATIONS NOT REPORTING VARIABLES SUCH AS SKY/WEATHER OR
PRESSURE ARE PROVIDED BY RAWS AND APRS NETWORKS AND ARE NOT UNDER
NATIONAL WEATHER SERVICE QUALITY CONTROL.

...OBSERVATIONS IN AND NEAR THE EASTERN PANHANDLE OF NEBRASKA...

CITY           SKY/WX    TMP DP  RH WIND       PRES   REMARKS
PINE RIDGE     CLOUDY    40  34  79 NE5       30.08R
CHADRON        CLOUDY    41  35  79 NE9       30.08S
ALLIANCE       LGT SNOW  32  32 100 W3        30.06R FOG
SIDNEY         CLOUDY    40  33  76 NE6       30.05R
CRESCENT LAKE    N/A     37  35  91 N5          N/A  WCI  33
$$

...OBSERVATIONS IN NORTHERN NEBRASKA AND FAR SOUTHERN SOUTH DAKOTA...

CITY           SKY/WX    TMP DP  RH WIND       PRES   REMARKS
WINNER         CLOUDY    45  37  73 N7        30.08R
VALENTINE      CLOUDY    40  36  86 NW8       30.09R FOG     WCI  34
THEDFORD       DRIZZLE   42  38  88 N7        30.07S
AINSWORTH      CLOUDY    40  37  86 N6        30.08S
O`NEILL        CLOUDY    42  39  91 NW3       30.08R
ORD            CLOUDY    45  39  79 N10       30.04S
BROKEN BOW     LGT RAIN  44  39  82 N8        30.04R
VALENTINE NWR    N/A     40  36  85 N6          N/A
BUTTE            N/A     39  38  97 CALM        N/A
HALSEY           N/A     42  37  81 N3          N/A
CHAMBERS         N/A     42  39  90 N3          N/A
EWING            N/A     42  40  92 NW3         N/A
$$

...OBSERVATIONS IN SOUTHWEST NEBRASKA AND FAR NORTHEAST COLORADO...

CITY           SKY/WX    TMP DP  RH WIND       PRES   REMARKS
IMPERIAL       CLOUDY    45  37  73 N5        30.05R
OGALLALA       CLOUDY    44  36  74 N6        30.06S
NORTH PLATTE   CLOUDY    44  38  79 NW3       30.05R
MCCOOK         CLOUDY    47  38  71 N8        30.05R
LEXINGTON      CLOUDY    46  41  83 N6        30.04S
STAPLETON        N/A     43  38  83 CALM        N/A
GOTHENBURG       N/A     46  38  73 N3          N/A
CALLAWAY         N/A     44  40  86 N6          N/A
$$

...OBSERVATIONS IN CENTRAL LINCOLN COUNTY AREA...

CITY           SKY/WX    TMP DP  RH WIND       PRES   REMARKS
N.P. AIRPORT   CLOUDY    44  38  79 NW3       30.05R
N.P. DOWNTOWN    N/A     45  39  79 CALM        N/A
N.P. SOUTHEAST   N/A     44  38  78 CALM        N/A
N.P. HILLCREST   N/A     44  38  80 CALM        N/A
$$

...SOME OBSERVATIONS FROM AROUND THE REGION...

CITY           SKY/WX    TMP DP  RH WIND       PRES   REMARKS
DENVER         CLOUDY    39  32  76 E15       29.98S WCI  31
LARAMIE        CLOUDY    30  26  85 SE15      29.96R WCI  19
CHEYENNE       FLURRIES  34  32  92 S9        30.00R WCI  27
SCOTTSBLUFF    CLOUDY    38  34  85 E3        30.06S
RAPID CITY     CLOUDY    38  34  85 NE8       30.10R WCI  32
BISMARCK       CLOUDY    52  28  39 NE9       30.12R
PIERRE         CLOUDY    46  34  62 NE8       30.08R
SIOUX FALLS    CLOUDY    40  35  83 NE9       30.08R WCI  34
OMAHA          CLOUDY    47  42  83 N15       30.02S
GRAND ISLAND   CLOUDY    46  40  79 N13       30.04S
KANSAS CITY    CLOUDY    54  46  74 N3        30.02R
WICHITA        MOCLDY    64  46  52 NE9       29.96R
OKLAHOMA CITY  CLOUDY    70  51  51 E14       29.86R
DALLAS         PTCLDY    80  56  43 E16       29.78S
AMARILLO       PTCLDY    65  53  65 E30G37    29.78R
DODGE CITY     CLOUDY    57  38  48 NE13      29.96S
HAYS           MOCLDY    55  37  50 NE7       30.01R
GOODLAND       CLOUDY    48  37  65 NE10      30.01S
$$




USA.gov is the U.S. government's official web portal to all federal, state and local government web resources and services.